This is the latest recevied weather packets stored in our database for station/object ON7XX-13. If no packets are shown the sender has not sent any weather packets the latest 10 day(s).
| Time | Temp. | Humidity | Pressure | Rain* | Wind** | Luminosity | Snow |
|---|---|---|---|---|---|---|---|
| 1777796902 | 17.22° C | 92% | 1011.8 hPa | - | - | - | - |
| 1777796288 | 17.22° C | 93% | 1011.9 hPa | - | - | - | - |
| 1777795674 | 17.22° C | 93% | 1011.9 hPa | - | - | - | - |
| 1777795059 | 17.22° C | 90% | 1011.9 hPa | - | - | - | - |
| 1777794446 | 17.22° C | 90% | 1011.8 hPa | - | - | - | - |
| 1777793831 | 17.22° C | 90% | 1011.7 hPa | - | - | - | - |
| 1777793217 | 17.22° C | 88% | 1011.8 hPa | - | - | - | - |
| 1777792602 | 17.22° C | 89% | 1011.8 hPa | - | - | - | - |
| 1777791987 | 16.67° C | 91% | 1011.9 hPa | - | - | - | - |
| 1777791373 | 16.67° C | 89% | 1011.8 hPa | - | - | - | - |
| 1777790759 | 16.67° C | 90% | 1011.9 hPa | - | - | - | - |
| 1777790145 | 16.67° C | 89% | 1011.8 hPa | - | - | - | - |
| 1777789530 | 16.67° C | 93% | 1011.8 hPa | - | - | - | - |
| 1777788916 | 16.67° C | 90% | 1011.9 hPa | - | - | - | - |
| 1777788302 | 16.11° C | 93% | 1011.8 hPa | - | - | - | - |
| 1777787688 | 16.11° C | 94% | 1011.8 hPa | - | - | - | - |
| 1777787074 | 16.11° C | 93% | 1011.7 hPa | - | - | - | - |
| 1777786459 | 16.11° C | 93% | 1011.6 hPa | - | - | - | - |
| 1777785845 | 16.11° C | 95% | 1011.6 hPa | - | - | - | - |
| 1777785231 | 16.67° C | 91% | 1011.4 hPa | - | - | - | - |
| 1777784617 | 16.11° C | 92% | 1011.4 hPa | - | - | - | - |
| 1777784003 | 16.67° C | 90% | 1011.2 hPa | - | - | - | - |
| 1777783389 | 16.67° C | 92% | 1011.2 hPa | - | - | - | - |
| 1777782774 | 16.67° C | 91% | 1011.1 hPa | - | - | - | - |
| 1777782160 | 16.67° C | 90% | 1011.4 hPa | - | - | - | - |
* Rain since midnight (hover to see other rain measurements)
** Current wind speed in m/s (hover to see current wind gust speed)